Printer-friendly version

IAU Minor Planet Center

Minor Planet Center

MPEC 2005-V06 : 2005 UT64

The following Minor Planet Electronic Circular may be linked-to from your own Web pages, but must not otherwise be redistributed electronically.


Read MPEC 2005-V05 Read MPEC 2005-V07


M.P.E.C. 2005-V06                                Issued 2005 Nov. 1, 18:35 UT

     The Minor Planet Electronic Circulars contain information on unusual
         minor planets and routine data on comets.  They are published
   on behalf of Commission 20 of the International Astronomical Union by the
          Minor Planet Center, Smithsonian Astrophysical Observatory,
                          Cambridge, MA 02138, U.S.A.

                  Supported in part by the Brinson Foundation
                  Supported in part by the TABASGO Foundation
             Prepared using the Tamkin Foundation Computer Network

                              MPC@CFA.HARVARD.EDU
          URL http://cfa-www.harvard.edu/iau/mpc.html  ISSN 1523-6714

                                   2005 UT64

Observations:
     K05U64T* C2005 10 31.27750 02 49 07.24 -16 20 28.5          19.7 V EV006703
     K05U64T  C2005 10 31.28297 02 49 06.74 -16 20 43.5          20.0 V EV006703
     K05U64T  C2005 10 31.28834 02 49 06.45 -16 20 55.7          19.7 V EV006703
     K05U64T  C2005 10 31.29372 02 49 06.16 -16 21 11.1          19.8 V EV006703
     K05U64T  C2005 10 31.32024 02 49 04.51 -16 22 19.2          19.6 V EV006703
     K05U64T  C2005 10 31.32400 02 49 04.26 -16 22 27.2          19.8 V EV006703
     K05U64T  C2005 10 31.32778 02 49 04.08 -16 22 36.9          20.4 V EV006703
     K05U64T  C2005 10 31.33156 02 49 03.79 -16 22 47.6          19.3 V EV006703
     K05U64T  C2005 11 01.29835 02 48 10.98 -17 03 59.9          20.2 V EV006703
     K05U64T  C2005 11 01.30096 02 48 10.87 -17 04 08.7          20.2 V EV006703
     K05U64T  C2005 11 01.30355 02 48 10.65 -17 04 13.9          19.5 V EV006703
     K05U64T  C2005 11 01.30617 02 48 10.54 -17 04 19.2          19.3 V EV006703
     K05U64T  C2005 11 01.31697 02 48 09.79 -17 04 48.8          19.6 V EV006G96
     K05U64T  C2005 11 01.32608 02 48 09.21 -17 05 12.3          19.6 V EV006G96
     K05U64T  C2005 11 01.33524 02 48 08.64 -17 05 35.9          19.6 V EV006G96
     K05U64T  C2005 11 01.34433 02 48 08.02 -17 05 59.2          19.6 V EV006G96
     K05U64T  C2005 11 01.51956 02 47 58.50 -17 13 02.6          19.5 R EV006474
     K05U64T  C2005 11 01.52326 02 47 58.25 -17 13 11.8          19.3 R EV006474
     K05U64T  C2005 11 01.53345 02 47 57.58 -17 13 39.4          19.0 R EV006474

Observer details:
474 Mount John Observatory, Lake Tekapo.  Observer A. C. Gilmore.  1.0-m f/7.7
    reflector + CCD.
703 Catalina Sky Survey.  Observer E. C. Beshore.  Measurers E. C. Beshore,
    E. J. Christensen, G. J. Garradd, A. D. Grauer, R. E. Hill, R. A. Kowalski,
    S. M. Larson, R. H. McNaught.  0.68-m Schmidt + CCD.
G96 Mt. Lemmon Survey.  Observer S. M. Larson.  Measurers E. C. Beshore,
    E. J. Christensen, G. J. Garradd, A. D. Grauer, R. E. Hill, R. A. Kowalski,
    S. M. Larson, R. H. McNaught.  1.5-m reflector + CCD.

Orbital elements:
2005 UT64
Epoch 2005 Aug. 18.0 TT = JDT 2453600.5                 MPC
M 294.99626              (2000.0)            P               Q
n   0.40658731     Peri.  325.57460     -0.63256103     -0.77267717
a   1.8045413      Node   163.45489     +0.74600457     -0.62632162
e   0.5145303      Incl.   10.77924     +0.20819156     -0.10339836
P   2.42           H   20.0           G   0.15           U   9
Residuals in seconds of arc
051031 703  1.4+  0.7+    051031 703  0.3-  0.7-    051101 G96  0.2+  0.4-
051031 703  1.0-  0.4-    051101 703  0.4-  0.8+    051101 G96  0.3-  0.3-
051031 703  0.4-  1.1+    051101 703  0.4+  1.3-    051101 474  0.4+  0.2+
051031 703  0.2+  0.6-    051101 703  0.3-  0.2+    051101 474  0.2+  0.5+
051031 703  0.0   1.1-    051101 703  0.5+  1.6+    051101 474  0.1-  0.8-
051031 703  0.3-  0.5+    051101 G96  0.2-  0.2-
051031 703  0.5+  0.4+    051101 G96  0.1-  0.3-

Ephemeris:
2005 UT64                a,e,i = 1.80, 0.51, 11                  q = 0.8761
Date    TT    R. A. (2000) Decl.     Delta      r     Elong.  Phase     V
2005 10 27    02 52.50   -13 23.4    0.422    1.379   151.4    20.2    19.8
2005 11 06    02 43.30   -20 29.0    0.364    1.303   143.6    26.8    19.6
2005 11 16    02 30.10   -27 57.1    0.322    1.226   131.5    37.2    19.5
2005 11 26    02 14.12   -35 12.9    0.290    1.151   117.8    49.3    19.5
2005 12 06    01 56.52   -42 02.6    0.264    1.080   104.1    62.2    19.5
2005 12 16    01 36.58   -48 52.5    0.238    1.015    90.6    75.9    19.6
2005 12 26    01 06.48   -56 39.8    0.210    0.958    76.9    90.8    19.7
2006 01 05    23 56.12   -65 44.6    0.183    0.914    62.6   107.1    20.1

Kyle E. Smalley              (C) Copyright 2005 MPC           M.P.E.C. 2005-V06

Read MPEC 2005-V05 Read MPEC 2005-V07


Our Web policy. Index to the CBAT/MPC/ICQ pages.


Valid HTML 4.01!